OK4PZ-5 Weather Reports


time (UTC)temp
C
wind
direction
speed
KPH
gust
KPH
rain 1hr
cm
rain 24hr
cm
rain mn
cm
humidity
%
barometer
mb
20260905223002 14 241 0.0 1.6 0.00 0.00 0.00 72 1026.0
20260905221502 13 248 0.0 1.6 0.00 0.00 0.00 73 1026.0
20260905220002 13 246 0.0 1.6 0.00 0.00 0.48 75 1026.0
20260905214502 13 246 0.0 0.0 0.00 0.00 0.48 74 1026.0
20260905213003 15 246 0.0 0.0 0.00 0.00 0.48 68 1026.0
20260905211502 16 242 1.6 3.2 0.00 0.00 0.48 65 1025.0
20260905210002 16 249 3.2 4.8 0.00 0.00 0.48 67 1025.0
20260905204502 16 281 0.0 3.2 0.00 0.00 0.48 69 1025.0
20260905203003 16 285 0.0 3.2 0.00 0.00 0.48 67 1025.0
20260905201502 17 292 1.6 4.8 0.00 0.00 0.48 66 1025.0
20260905200002 17 306 1.6 12.9 0.00 0.00 0.48 63 1025.0
20260905194502 17 277 3.2 6.4 0.00 0.00 0.48 62 1025.0
20260905193002 18 295 1.6 6.4 0.00 0.00 0.48 60 1024.0
20260905191503 18 300 3.2 11.3 0.00 0.00 0.48 59 1024.0
20260905190002 18 231 11.3 14.5 0.00 0.00 0.48 57 1024.0
20260905184502 19 298 4.8 11.3 0.00 0.00 0.48 57 1024.0
20260905183003 19 284 3.2 9.7 0.00 0.00 0.48 59 1024.0
20260905181502 19 263 3.2 9.7 0.00 0.00 0.48 60 1023.0
20260905180002 19 279 3.2 4.8 0.00 0.00 0.48 62 1023.0
20260905174502 20 264 3.2 6.4 0.00 0.00 0.48 61 1023.0
20260905173003 20 238 3.2 6.4 0.00 0.00 0.48 60 1023.0
20260905171502 20 260 3.2 4.8 0.00 0.00 0.48 59 1023.0
20260905170002 20 293 3.2 6.4 0.00 0.00 0.48 58 1022.0
20260905164502 20 268 3.2 12.9 0.00 0.00 0.48 58 1022.0
20260905163003 21 303 4.8 12.9 0.00 0.00 0.48 56 1022.0
20260905161502 21 252 8.0 22.5 0.00 0.00 0.48 54 1022.0
20260905160002 21 301 11.3 14.5 0.00 0.00 0.48 52 1022.0
20260905154502 21 280 6.4 22.5 0.00 0.00 0.48 52 1022.0
20260905153002 22 306 11.3 27.4 0.00 0.00 0.48 51 1022.0
20260905151502 22 229 8.0 22.5 0.00 0.00 0.48 49 1022.0
20260905150003 21 244 6.4 14.5 0.00 0.00 0.48 52 1022.0
20260905144502 22 306 4.8 12.9 0.00 0.00 0.48 50 1022.0
20260905143002 21 263 3.2 16.1 0.00 0.00 0.48 51 1022.0
20260905141502 22 232 11.3 16.1 0.00 0.00 0.48 50 1022.0
20260905140002 20 231 3.2 9.7 0.00 0.00 0.48 53 1022.0
20260905134502 20 269 4.8 14.5 0.00 0.00 0.48 56 1022.0
20260905133003 21 24 8.0 12.9 0.00 0.00 0.48 53 1022.0
20260905131503 20 258 3.2 11.3 0.00 0.00 0.48 54 1022.0
20260905130002 21 224 11.3 25.7 0.00 0.00 0.48 53 1023.0
20260905124502 21 272 11.3 24.1 0.00 0.00 0.48 55 1022.0
20260905123002 21 258 17.7 20.9 0.00 0.00 0.48 56 1023.0
20260905121502 21 287 3.2 11.3 0.00 0.00 0.48 57 1023.0
20260905120002 20 8 9.7 25.7 0.00 0.00 0.48 58 1023.0
20260905114502 20 276 4.8 12.9 0.00 0.00 0.48 61 1023.0
20260905113002 19 280 6.4 11.3 0.00 0.00 0.48 63 1023.0
20260905111502 20 47 6.4 9.7 0.00 0.00 0.48 62 1023.0
20260905110002 20 276 3.2 9.7 0.00 0.00 0.48 61 1023.0
20260905104502 19 262 14.5 24.1 0.00 0.00 0.48 59 1023.0
20260905103002 19 252 11.3 16.1 0.00 0.00 0.48 61 1023.0
20260905101502 19 296 6.4 16.1 0.00 0.00 0.48 63 1023.0
20260905100002 18 258 8.0 12.9 0.00 0.00 0.48 66 1023.0
20260905094502 18 288 1.6 11.3 0.00 0.00 0.48 70 1023.0
20260905093002 17 250 9.7 16.1 0.00 0.00 0.48 73 1023.0
20260905091502 17 262 3.2 9.7 0.00 0.00 0.48 76 1023.0
20260905090002 17 288 6.4 11.3 0.00 0.00 0.48 79 1023.0
20260905084502 16 285 6.4 14.5 0.00 0.00 0.48 82 1023.0
20260905083002 15 224 3.2 11.3 0.00 0.00 0.48 86 1023.0
20260905081503 15 275 6.4 11.3 0.00 0.00 0.48 90 1023.0
20260905080002 14 244 6.4 9.7 0.00 0.00 0.48 91 1023.0
20260905074502 14 254 4.8 9.7 0.00 0.00 0.48 92 1022.0
20260905073002 13 242 3.2 4.8 0.00 0.00 0.48 93 1022.0
20260905071502 14 272 1.6 6.4 0.00 0.00 0.48 94 1022.0
20260905070003 13 288 1.6 9.7 0.00 0.00 0.48 94 1022.0
20260905064502 13 251 1.6 4.8 0.00 0.00 0.48 95 1022.0
20260905063002 13 268 4.8 6.4 0.18 0.00 0.48 96 1022.0
20260905061502 13 216 1.6 4.8 0.13 0.00 0.46 96 1022.0
20260905060002 13 262 0.0 1.6 0.13 0.00 0.41 95 1022.0
20260905054502 13 229 0.0 1.6 0.36 0.00 0.33 95 1022.0
20260905053002 13 265 3.2 4.8 0.48 0.00 0.25 93 1022.0
20260905051502 13 275 0.0 1.6 0.18 0.00 0.15 92 1022.0
20260905050002 13 259 0.0 4.8 0.18 0.00 0.10 90 1022.0
20260905044503 14 275 1.6 4.8 0.30 0.00 0.05 87 1021.0
20260905043002 15 246 0.0 1.6 0.00 0.00 0.00 86 1021.0
20260905041502 15 240 1.6 3.2 0.00 0.00 0.00 87 1021.0
20260905040002 15 257 1.6 1.6 0.00 0.00 0.00 85 1020.0
20260905034502 15 254 0.0 0.0 0.00 0.00 0.00 81 1020.0
20260905033001 16 253 3.2 4.8 0.00 0.00 0.00 78 1020.0
20260905031502 16 262 1.6 3.2 0.00 0.00 0.00 73 1020.0
20260905030002 17 72 3.2 6.4 0.00 0.00 0.00 69 1019.0
20260905024502 17 264 3.2 4.8 0.00 0.00 0.00 67 1019.0
20260905023002 17 60 0.0 6.4 0.00 0.00 0.00 67 1019.0
20260905021502 17 331 3.2 4.8 0.00 0.00 0.00 69 1019.0
20260905020003 17 23 1.6 1.6 0.00 0.00 0.00 69 1018.0
20260905014503 17 350 3.2 4.8 0.00 0.00 0.00 71 1018.0
20260905013002 17 70 9.7 14.5 0.00 0.00 0.00 72 1018.0
20260905011502 18 50 6.4 11.3 0.00 0.00 0.00 70 1018.0
20260905010002 18 34 9.7 20.9 0.00 0.00 0.00 72 1018.0
20260905004502 20 32 16.1 24.1 0.00 0.00 0.00 71 1018.0
20260905003002 21 275 0.0 3.2 0.00 0.00 0.00 64 1017.0
20260905001502 21 246 1.6 3.2 0.00 0.00 0.00 64 1016.0
20260905000002 21 254 3.2 3.2 0.00 0.00 0.00 64 1016.0
20260904234502 21 251 1.6 1.6 0.00 0.00 0.00 65 1016.0
20260904233002 21 273 3.2 3.2 0.00 0.00 0.00 65 1016.0
20260904231502 21 236 0.0 1.6 0.00 0.00 0.00 64 1016.0
20260904230002 21 245 1.6 3.2 0.00 0.00 0.00 64 1016.0
20260904224502 18 246 1.6 4.8 0.00 0.00 0.00 74 1016.0